RYR76RU LOWW-LGRP

Flight info

Callsign RYR76RU
Flight time 2h 5m
Altitude 37000
Route ARSIN DCT NALOX DCT SUNOR DCT OSDUK DCT SOMUN DCT VABEK UL603 OLOTA DCT DISOR DCT MES UN139 LURUS UL995 CODIC
Aircraft A320/M-SDE3FGHIRWY/LB1

Departure

Time 2026-04-21 10:11
Airport Vienna International Airport (LOWW)

Arrival

Time 2026-04-21 12:16
Airport Rhodes International Airport "Diagoras" (LGRP)
Time Latitude Longitude Altitude Speed Heading
2026-04-21 09:06 48.11907 16.55704 609 ft 0 kts 25°
2026-04-21 10:03 48.11897 16.55696 617 ft 3 kts 26°
2026-04-21 10:04 48.11879 16.55683 609 ft 3 kts 28°
2026-04-21 10:04 48.11862 16.55668 621 ft 3 kts 34°
2026-04-21 10:04 48.11846 16.55650 625 ft 3 kts 53°
2026-04-21 10:04 48.11839 16.55628 617 ft 2 kts 101°
2026-04-21 10:05 48.11840 16.55620 615 ft 0 kts 116°
2026-04-21 10:08 48.11839 16.55621 609 ft 1 kts 116°
2026-04-21 10:08 48.11813 16.55703 618 ft 18 kts 115°
2026-04-21 10:08 48.11707 16.55796 613 ft 20 kts 157°
2026-04-21 10:09 48.11633 16.55971 609 ft 21 kts 115°
2026-04-21 10:09 48.11566 16.56176 611 ft 23 kts 116°
2026-04-21 10:09 48.11492 16.56405 612 ft 25 kts 116°
2026-04-21 10:09 48.11412 16.56652 615 ft 27 kts 116°
2026-04-21 10:10 48.11326 16.56918 617 ft 29 kts 116°
2026-04-21 10:10 48.11239 16.57182 616 ft 19 kts 116°
2026-04-21 10:10 48.11132 16.57203 616 ft 19 kts 204°
2026-04-21 10:10 48.11066 16.57060 617 ft 21 kts 297°
2026-04-21 10:11 48.11236 16.56558 618 ft 87 kts 296°
2026-04-21 10:11 48.11583 16.55494 614 ft 138 kts 296°
2026-04-21 10:11 48.12066 16.54029 725 ft 168 kts 298°
2026-04-21 10:11 48.12400 16.52372 1355 ft 171 kts 265°
2026-04-21 10:12 48.11818 16.50803 1888 ft 185 kts 225°
2026-04-21 10:12 48.10733 16.49623 2302 ft 200 kts 215°
2026-04-21 10:12 48.09502 16.48486 2644 ft 219 kts 214°
2026-04-21 10:12 48.08087 16.47352 2972 ft 244 kts 200°
2026-04-21 10:13 48.06323 16.47166 3394 ft 268 kts 166°
2026-04-21 10:13 48.04563 16.48170 4143 ft 275 kts 156°
2026-04-21 10:13 48.02782 16.49249 5041 ft 277 kts 158°
2026-04-21 10:13 48.00967 16.50278 5921 ft 280 kts 159°
2026-04-21 10:14 47.99133 16.51298 6783 ft 283 kts 159°
2026-04-21 10:14 47.97281 16.52331 7623 ft 285 kts 158°
2026-04-21 10:14 47.95417 16.53378 8447 ft 288 kts 158°
2026-04-21 10:14 47.93538 16.54444 9242 ft 290 kts 158°
2026-04-21 10:15 47.92259 16.55175 9773 ft 292 kts 158°
2026-04-21 10:15 47.90349 16.56267 10469 ft 299 kts 158°
2026-04-21 10:15 47.88334 16.57419 10689 ft 322 kts 159°
2026-04-21 10:15 47.86177 16.58650 10970 ft 340 kts 159°
2026-04-21 10:16 47.83945 16.59922 11561 ft 346 kts 159°
2026-04-21 10:16 47.81690 16.61208 12224 ft 349 kts 159°
2026-04-21 10:16 47.79408 16.62508 12879 ft 353 kts 159°
2026-04-21 10:16 47.77106 16.63819 13515 ft 356 kts 159°
2026-04-21 10:17 47.74777 16.65144 14122 ft 360 kts 160°
2026-04-21 10:17 47.72425 16.66479 14702 ft 364 kts 160°
2026-04-21 10:17 47.70046 16.67829 15272 ft 368 kts 160°
2026-04-21 10:17 47.67637 16.69197 15836 ft 372 kts 160°
2026-04-21 10:18 47.65210 16.70575 16386 ft 375 kts 160°
2026-04-21 10:18 47.62763 16.71963 16927 ft 379 kts 160°
2026-04-21 10:18 47.60287 16.73363 17449 ft 383 kts 161°
2026-04-21 10:18 47.57774 16.74713 17976 ft 385 kts 166°
2026-04-21 10:19 47.55149 16.75517 18502 ft 386 kts 176°
2026-04-21 10:19 47.52457 16.75784 19039 ft 389 kts 179°
2026-04-21 10:19 47.49744 16.76025 19583 ft 392 kts 179°
2026-04-21 10:19 47.47010 16.76273 20121 ft 396 kts 179°
2026-04-21 10:20 47.44248 16.76538 20648 ft 399 kts 179°
2026-04-21 10:20 47.41460 16.76810 21160 ft 403 kts 179°
2026-04-21 10:20 47.38656 16.77083 21650 ft 406 kts 180°
2026-04-21 10:20 47.35829 16.77358 22129 ft 409 kts 180°
2026-04-21 10:21 47.32979 16.77635 22582 ft 412 kts 180°
2026-04-21 10:21 47.30107 16.77911 23041 ft 415 kts 180°
2026-04-21 10:21 47.27215 16.78186 23467 ft 418 kts 180°
2026-04-21 10:21 47.24309 16.78461 23893 ft 420 kts 180°
2026-04-21 10:22 47.21377 16.78742 24302 ft 423 kts 180°
2026-04-21 10:22 47.18391 16.79033 24709 ft 426 kts 180°
2026-04-21 10:22 47.15460 16.79316 25086 ft 429 kts 181°
2026-04-21 10:22 47.12438 16.79607 25474 ft 431 kts 181°
2026-04-21 10:23 47.09435 16.79892 25845 ft 434 kts 181°
2026-04-21 10:23 47.06415 16.80171 26203 ft 436 kts 182°
2026-04-21 10:23 47.03375 16.80449 26546 ft 439 kts 182°
2026-04-21 10:23 47.00317 16.80735 26887 ft 441 kts 182°
2026-04-21 10:24 46.97248 16.81026 27225 ft 444 kts 182°
2026-04-21 10:24 46.94154 16.81317 27561 ft 446 kts 182°
2026-04-21 10:24 46.91046 16.81799 27877 ft 454 kts 175°
2026-04-21 10:24 46.87961 16.83020 28187 ft 465 kts 165°
2026-04-21 10:25 46.85001 16.85029 28481 ft 474 kts 154°
2026-04-21 10:25 46.82267 16.87803 28759 ft 484 kts 144°
2026-04-21 10:25 46.79687 16.90985 29032 ft 487 kts 144°
2026-04-21 10:25 46.77093 16.94180 29309 ft 490 kts 144°
2026-04-21 10:26 46.74480 16.97386 29568 ft 492 kts 144°
2026-04-21 10:26 46.71848 17.00609 29857 ft 495 kts 144°
2026-04-21 10:26 46.69212 17.03840 30213 ft 495 kts 144°
2026-04-21 10:26 46.66576 17.07073 30587 ft 495 kts 144°
2026-04-21 10:27 46.63942 17.10306 30971 ft 495 kts 144°
2026-04-21 10:27 46.61310 17.13531 31350 ft 495 kts 144°
2026-04-21 10:27 46.58681 17.16742 31746 ft 494 kts 144°
2026-04-21 10:27 46.56043 17.19955 32128 ft 494 kts 144°
2026-04-21 10:28 46.53410 17.23152 32503 ft 494 kts 144°
2026-04-21 10:28 46.50772 17.26344 32866 ft 493 kts 144°
2026-04-21 10:28 46.48140 17.29526 33261 ft 492 kts 144°
2026-04-21 10:28 46.45513 17.32716 33626 ft 492 kts 144°
2026-04-21 10:29 46.42899 17.35919 33997 ft 492 kts 144°
2026-04-21 10:29 46.40295 17.39125 34366 ft 491 kts 143°
2026-04-21 10:29 46.37697 17.42325 34723 ft 490 kts 143°
2026-04-21 10:29 46.35066 17.45555 35018 ft 490 kts 143°
2026-04-21 10:30 46.32462 17.48737 35067 ft 493 kts 144°
2026-04-21 10:30 46.27179 17.55154 35071 ft 497 kts 144°
2026-04-21 10:31 46.21885 17.61587 35067 ft 498 kts 144°
2026-04-21 10:31 46.16582 17.68019 35057 ft 498 kts 144°
2026-04-21 10:32 46.11271 17.74442 35061 ft 498 kts 144°
2026-04-21 10:32 46.05956 17.80853 35068 ft 498 kts 144°
2026-04-21 10:33 46.00631 17.87247 35069 ft 499 kts 144°
2026-04-21 10:33 45.95297 17.93636 35074 ft 499 kts 144°
2026-04-21 10:34 45.89958 18.00009 35072 ft 499 kts 144°
2026-04-21 10:34 45.84629 18.06376 35073 ft 499 kts 144°
2026-04-21 10:35 45.79276 18.12689 35069 ft 496 kts 148°
2026-04-21 10:35 45.73441 18.17807 35066 ft 491 kts 155°
2026-04-21 10:36 45.67540 18.22720 35061 ft 491 kts 155°
2026-04-21 10:36 45.61633 18.27634 35061 ft 491 kts 155°
2026-04-21 10:37 45.55727 18.32524 35066 ft 490 kts 155°
2026-04-21 10:37 45.49822 18.37399 35065 ft 490 kts 155°
2026-04-21 10:38 45.43882 18.42302 35071 ft 490 kts 155°
2026-04-21 10:38 45.37984 18.47153 35071 ft 490 kts 155°
2026-04-21 10:39 45.32083 18.51993 35069 ft 490 kts 155°
2026-04-21 10:39 45.26181 18.56836 35076 ft 489 kts 155°
2026-04-21 10:40 45.20286 18.61658 35071 ft 489 kts 155°
2026-04-21 10:40 45.14389 18.66461 35076 ft 489 kts 155°
2026-04-21 10:41 45.08490 18.71249 35074 ft 488 kts 155°
2026-04-21 10:41 45.02597 18.76026 35074 ft 488 kts 155°
2026-04-21 10:42 44.96705 18.80792 35075 ft 488 kts 155°
2026-04-21 10:42 44.90820 18.85544 35073 ft 487 kts 155°
2026-04-21 10:43 44.84940 18.90285 35077 ft 487 kts 155°
2026-04-21 10:43 44.79062 18.95006 35071 ft 486 kts 155°
2026-04-21 10:44 44.73176 18.99720 35067 ft 486 kts 155°
2026-04-21 10:44 44.67301 19.04404 35063 ft 486 kts 155°
2026-04-21 10:45 44.61416 19.09097 35064 ft 486 kts 155°
2026-04-21 10:45 44.55991 19.14103 35065 ft 489 kts 149°
2026-04-21 10:46 44.50412 19.19583 35059 ft 490 kts 149°
2026-04-21 10:46 44.44828 19.25045 35062 ft 490 kts 150°
2026-04-21 10:47 44.39240 19.30494 35064 ft 490 kts 150°
2026-04-21 10:47 44.33642 19.35941 35062 ft 490 kts 150°
2026-04-21 10:48 44.28993 19.40464 35066 ft 490 kts 150°
2026-04-21 10:48 44.23391 19.45901 35062 ft 490 kts 150°
2026-04-21 10:49 44.17789 19.51323 35067 ft 490 kts 150°
2026-04-21 10:49 44.12179 19.56738 35068 ft 490 kts 150°
2026-04-21 10:50 44.06568 19.62135 35063 ft 491 kts 150°
2026-04-21 10:50 44.00952 19.67531 35063 ft 490 kts 150°
2026-04-21 10:51 43.95299 19.72953 35063 ft 491 kts 150°
2026-04-21 10:51 43.89679 19.78328 35061 ft 491 kts 150°
2026-04-21 10:52 43.84057 19.83691 35063 ft 491 kts 150°
2026-04-21 10:52 43.78430 19.89044 35062 ft 491 kts 150°
2026-04-21 10:53 43.72802 19.94387 35068 ft 491 kts 150°
2026-04-21 10:53 43.67168 19.99721 35065 ft 491 kts 150°
2026-04-21 10:54 43.61539 20.05036 35067 ft 491 kts 150°
2026-04-21 10:54 43.55897 20.10351 35061 ft 491 kts 150°
2026-04-21 10:55 43.50260 20.15656 35064 ft 491 kts 150°
2026-04-21 10:55 43.44620 20.20954 35066 ft 491 kts 150°
2026-04-21 10:56 43.38973 20.26241 35065 ft 491 kts 150°
2026-04-21 10:56 43.33334 20.31516 35061 ft 490 kts 150°
2026-04-21 10:57 43.27649 20.36812 35062 ft 490 kts 150°
2026-04-21 10:57 43.22013 20.42052 35061 ft 489 kts 150°
2026-04-21 10:58 43.16374 20.47282 35067 ft 489 kts 150°
2026-04-21 10:58 43.10744 20.52494 35067 ft 489 kts 150°
2026-04-21 10:59 43.05113 20.57695 35064 ft 488 kts 151°
2026-04-21 10:59 42.99589 20.63097 35061 ft 492 kts 142°
2026-04-21 11:00 42.94625 20.69579 35063 ft 494 kts 140°
2026-04-21 11:00 42.89667 20.76054 35062 ft 494 kts 140°
2026-04-21 11:01 42.84695 20.82519 35065 ft 493 kts 140°
2026-04-21 11:01 42.79728 20.88974 35285 ft 494 kts 140°
2026-04-21 11:02 42.75587 20.94350 35829 ft 493 kts 140°
2026-04-21 11:02 42.74959 20.95164 35911 ft 492 kts 140°
2026-04-21 11:02 42.72300 20.98545 36063 ft 493 kts 141°
2026-04-21 11:03 42.69809 21.01733 36394 ft 492 kts 140°
2026-04-21 11:03 42.67340 21.04938 36695 ft 491 kts 140°
2026-04-21 11:03 42.64878 21.08154 36985 ft 489 kts 140°
2026-04-21 11:03 42.62458 21.11312 37052 ft 485 kts 140°
2026-04-21 11:04 42.57563 21.17650 37054 ft 482 kts 140°
2026-04-21 11:04 42.52698 21.23889 37055 ft 481 kts 140°
2026-04-21 11:05 42.47830 21.30098 37052 ft 481 kts 140°
2026-04-21 11:05 42.42964 21.36312 37042 ft 481 kts 140°
2026-04-21 11:06 42.38094 21.42527 37051 ft 481 kts 141°
2026-04-21 11:06 42.33219 21.48734 37048 ft 481 kts 141°
2026-04-21 11:07 42.28343 21.54917 37052 ft 481 kts 141°
2026-04-21 11:07 42.23460 21.61095 37044 ft 481 kts 141°
2026-04-21 11:08 42.18515 21.67147 37034 ft 479 kts 143°
2026-04-21 11:08 42.13480 21.73027 37029 ft 479 kts 143°
2026-04-21 11:09 42.08442 21.78889 37031 ft 478 kts 143°
2026-04-21 11:09 42.03435 21.84775 37024 ft 478 kts 143°
2026-04-21 11:10 41.98456 21.90646 37022 ft 478 kts 143°
2026-04-21 11:10 41.93456 21.96526 37020 ft 478 kts 143°
2026-04-21 11:11 41.88442 22.02386 37017 ft 478 kts 143°
2026-04-21 11:11 41.83391 22.08275 37016 ft 478 kts 143°
2026-04-21 11:12 41.78369 22.14115 37016 ft 478 kts 143°
2026-04-21 11:12 41.73349 22.19945 37014 ft 478 kts 143°
2026-04-21 11:13 41.68326 22.25781 37012 ft 478 kts 143°
2026-04-21 11:13 41.63327 22.31583 37007 ft 478 kts 143°
2026-04-21 11:14 41.58297 22.37399 37002 ft 478 kts 143°
2026-04-21 11:14 41.53257 22.43200 37000 ft 478 kts 143°
2026-04-21 11:15 41.48216 22.48995 36997 ft 478 kts 143°
2026-04-21 11:15 41.43170 22.54781 36993 ft 479 kts 143°
2026-04-21 11:16 41.38118 22.60563 36992 ft 479 kts 143°
2026-04-21 11:16 41.33057 22.66342 36994 ft 479 kts 144°
2026-04-21 11:17 41.27993 22.72117 36988 ft 480 kts 143°
2026-04-21 11:17 41.22849 22.77734 36986 ft 478 kts 146°
2026-04-21 11:18 41.17558 22.83156 36984 ft 477 kts 147°
2026-04-21 11:18 41.12283 22.88516 36981 ft 478 kts 147°
2026-04-21 11:19 41.07038 22.93930 36976 ft 478 kts 146°
2026-04-21 11:19 41.01799 22.99364 36978 ft 478 kts 146°
2026-04-21 11:20 40.96583 23.04766 36974 ft 478 kts 146°
2026-04-21 11:20 40.92219 23.09264 36969 ft 478 kts 147°
2026-04-21 11:21 40.86925 23.14694 36965 ft 478 kts 147°
2026-04-21 11:21 40.81664 23.20069 36963 ft 478 kts 147°
2026-04-21 11:22 40.76404 23.25449 36964 ft 479 kts 147°
2026-04-21 11:22 40.71140 23.30833 36965 ft 479 kts 147°
2026-04-21 11:23 40.65875 23.36204 36967 ft 479 kts 147°
2026-04-21 11:23 40.60601 23.41563 36966 ft 479 kts 147°
2026-04-21 11:24 40.55322 23.46908 36968 ft 479 kts 147°
2026-04-21 11:24 40.50047 23.52246 36967 ft 479 kts 147°
2026-04-21 11:25 40.44770 23.57581 36963 ft 479 kts 147°
2026-04-21 11:25 40.39484 23.62911 36961 ft 479 kts 147°
2026-04-21 11:26 40.34196 23.68231 36960 ft 479 kts 147°
2026-04-21 11:26 40.28905 23.73545 36960 ft 479 kts 147°
2026-04-21 11:27 40.23575 23.78884 36961 ft 479 kts 147°
2026-04-21 11:27 40.18276 23.84180 36961 ft 479 kts 147°
2026-04-21 11:28 40.12986 23.89469 36959 ft 479 kts 147°
2026-04-21 11:28 40.07688 23.94740 36954 ft 479 kts 147°
2026-04-21 11:29 40.02383 24.00008 36953 ft 479 kts 147°
2026-04-21 11:29 39.97088 24.05267 36951 ft 479 kts 147°
2026-04-21 11:30 39.91782 24.10522 36950 ft 479 kts 147°
2026-04-21 11:30 39.86475 24.15765 36950 ft 479 kts 147°
2026-04-21 11:31 39.81168 24.21001 36945 ft 479 kts 147°
2026-04-21 11:31 39.75862 24.26222 36940 ft 479 kts 147°
2026-04-21 11:32 39.70553 24.31439 36937 ft 479 kts 147°
2026-04-21 11:32 39.65235 24.36650 36935 ft 479 kts 147°
2026-04-21 11:33 39.59920 24.41847 36935 ft 479 kts 147°
2026-04-21 11:33 39.54599 24.47044 36937 ft 479 kts 147°
2026-04-21 11:34 39.49240 24.52264 36940 ft 479 kts 147°
2026-04-21 11:34 39.43907 24.57456 36939 ft 480 kts 147°
2026-04-21 11:35 39.38573 24.62645 36940 ft 480 kts 147°
2026-04-21 11:35 39.33227 24.67822 36942 ft 480 kts 147°
2026-04-21 11:36 39.27877 24.72988 36944 ft 480 kts 147°
2026-04-21 11:36 39.22530 24.78150 36947 ft 480 kts 147°
2026-04-21 11:37 39.17183 24.83305 36947 ft 480 kts 147°
2026-04-21 11:37 39.11827 24.88452 36948 ft 480 kts 147°
2026-04-21 11:38 39.06472 24.93597 36951 ft 481 kts 147°
2026-04-21 11:38 39.01069 24.98769 36954 ft 480 kts 147°
2026-04-21 11:39 38.95702 25.03896 36955 ft 480 kts 147°
2026-04-21 11:39 38.90334 25.09010 36956 ft 480 kts 147°
2026-04-21 11:40 38.84969 25.14123 36959 ft 480 kts 147°
2026-04-21 11:40 38.79603 25.19221 36966 ft 480 kts 147°
2026-04-21 11:41 38.74225 25.24313 36967 ft 480 kts 147°
2026-04-21 11:41 38.68855 25.29396 36973 ft 480 kts 147°
2026-04-21 11:42 38.63950 25.34037 36980 ft 480 kts 147°
2026-04-21 11:42 38.58533 25.39147 36982 ft 481 kts 147°
2026-04-21 11:43 38.53150 25.44211 36983 ft 481 kts 147°
2026-04-21 11:43 38.47764 25.49277 36982 ft 481 kts 147°
2026-04-21 11:44 38.42372 25.54336 36984 ft 481 kts 147°
2026-04-21 11:44 38.36977 25.59383 36986 ft 481 kts 147°
2026-04-21 11:45 38.31574 25.64427 36987 ft 482 kts 147°
2026-04-21 11:45 38.26170 25.69472 36988 ft 482 kts 147°
2026-04-21 11:46 38.20763 25.74510 36989 ft 482 kts 147°
2026-04-21 11:46 38.15346 25.79541 36991 ft 482 kts 148°
2026-04-21 11:47 38.09928 25.84559 36992 ft 482 kts 148°
2026-04-21 11:47 38.04503 25.89572 36993 ft 482 kts 148°
2026-04-21 11:48 37.99086 25.94575 36993 ft 482 kts 148°
2026-04-21 11:48 37.93658 25.99589 36993 ft 482 kts 148°
2026-04-21 11:49 37.88200 26.04614 36994 ft 482 kts 148°
2026-04-21 11:49 37.82769 26.09597 36997 ft 482 kts 148°
2026-04-21 11:50 37.77341 26.14574 37000 ft 482 kts 148°
2026-04-21 11:50 37.74625 26.17059 36870 ft 483 kts 148°
2026-04-21 11:50 37.71902 26.19549 36569 ft 482 kts 148°
2026-04-21 11:51 37.69191 26.22025 36213 ft 481 kts 148°
2026-04-21 11:51 37.66475 26.24504 35838 ft 483 kts 148°
2026-04-21 11:51 37.64675 26.26145 35593 ft 485 kts 148°
2026-04-21 11:51 37.61000 26.29493 35082 ft 487 kts 147°
2026-04-21 11:52 37.59176 26.31152 34842 ft 488 kts 147°
2026-04-21 11:52 37.56390 26.33687 34465 ft 488 kts 147°
2026-04-21 11:52 37.53636 26.36194 34088 ft 488 kts 147°
2026-04-21 11:52 37.50885 26.38698 33715 ft 488 kts 147°
2026-04-21 11:53 37.48132 26.41200 33341 ft 487 kts 147°
2026-04-21 11:53 37.45391 26.43692 32965 ft 485 kts 147°
2026-04-21 11:53 37.42672 26.46156 32591 ft 482 kts 147°
2026-04-21 11:53 37.39959 26.48611 32219 ft 478 kts 147°
2026-04-21 11:54 37.37260 26.51049 31850 ft 475 kts 147°
2026-04-21 11:54 37.34583 26.53465 31465 ft 472 kts 147°
2026-04-21 11:54 37.31919 26.55864 31089 ft 469 kts 147°
2026-04-21 11:54 37.29274 26.58247 30713 ft 467 kts 147°
2026-04-21 11:55 37.26646 26.60617 30306 ft 463 kts 147°
2026-04-21 11:55 37.24039 26.62965 29906 ft 460 kts 146°
2026-04-21 11:55 37.21444 26.65298 29506 ft 457 kts 146°
2026-04-21 11:55 37.18872 26.67609 29104 ft 454 kts 146°
2026-04-21 11:56 37.16307 26.69909 28712 ft 451 kts 146°
2026-04-21 11:56 37.13765 26.72187 28305 ft 448 kts 146°
2026-04-21 11:56 37.11241 26.74447 27910 ft 445 kts 146°
2026-04-21 11:56 37.08910 26.76533 27537 ft 442 kts 146°
2026-04-21 11:57 37.06450 26.78734 27139 ft 439 kts 146°
2026-04-21 11:57 37.03940 26.80979 26731 ft 437 kts 146°
2026-04-21 11:57 37.01476 26.83181 26337 ft 434 kts 146°
2026-04-21 11:57 36.99028 26.85367 25933 ft 431 kts 146°
2026-04-21 11:58 36.96591 26.87541 25506 ft 429 kts 146°
2026-04-21 11:58 36.95363 26.88637 25246 ft 428 kts 146°
2026-04-21 11:58 36.92938 26.90797 24750 ft 427 kts 146°
2026-04-21 11:58 36.90522 26.92947 24248 ft 426 kts 146°
2026-04-21 11:59 36.88105 26.95096 23749 ft 425 kts 146°
2026-04-21 11:59 36.85699 26.97231 23244 ft 424 kts 146°
2026-04-21 11:59 36.83294 26.99363 22743 ft 423 kts 146°
2026-04-21 11:59 36.80898 27.01489 22246 ft 422 kts 146°
2026-04-21 12:00 36.78506 27.03615 21745 ft 421 kts 146°
2026-04-21 12:00 36.76124 27.05730 21238 ft 420 kts 146°
2026-04-21 12:00 36.73739 27.07842 20663 ft 420 kts 146°
2026-04-21 12:00 36.71358 27.09950 20087 ft 420 kts 145°
2026-04-21 12:01 36.69117 27.12287 19509 ft 420 kts 134°
2026-04-21 12:01 36.67281 27.15102 18934 ft 419 kts 122°
2026-04-21 12:01 36.65964 27.18325 18358 ft 417 kts 112°
2026-04-21 12:01 36.64796 27.21628 17787 ft 415 kts 113°
2026-04-21 12:02 36.63634 27.24904 17206 ft 413 kts 113°
2026-04-21 12:02 36.61332 27.31409 16338 ft 416 kts 113°
2026-04-21 12:02 36.60162 27.34737 15961 ft 421 kts 113°
2026-04-21 12:03 36.58990 27.38075 15586 ft 421 kts 113°
2026-04-21 12:03 36.57820 27.41404 15211 ft 419 kts 113°
2026-04-21 12:03 36.56641 27.44753 14830 ft 416 kts 113°
2026-04-21 12:03 36.55497 27.47993 14460 ft 413 kts 113°
2026-04-21 12:04 36.54343 27.51249 14072 ft 410 kts 113°
2026-04-21 12:04 36.53179 27.54522 13700 ft 408 kts 113°
2026-04-21 12:04 36.52036 27.57741 13329 ft 405 kts 113°
2026-04-21 12:04 36.50903 27.60933 12959 ft 402 kts 113°
2026-04-21 12:05 36.49791 27.64072 12586 ft 400 kts 113°
2026-04-21 12:05 36.48670 27.67230 12210 ft 397 kts 113°
2026-04-21 12:05 36.47561 27.70355 11838 ft 394 kts 114°
2026-04-21 12:05 36.46453 27.73466 11458 ft 392 kts 114°
2026-04-21 12:06 36.45351 27.76549 11089 ft 390 kts 114°
2026-04-21 12:06 36.44252 27.79618 10713 ft 388 kts 114°
2026-04-21 12:06 36.43160 27.82667 10338 ft 386 kts 114°
2026-04-21 12:06 36.42332 27.85810 9923 ft 381 kts 98°
2026-04-21 12:07 36.42368 27.88975 9472 ft 355 kts 78°
2026-04-21 12:07 36.42869 27.91873 9027 ft 335 kts 76°
2026-04-21 12:07 36.43388 27.94618 8628 ft 318 kts 75°
2026-04-21 12:07 36.43881 27.97216 8256 ft 303 kts 75°
2026-04-21 12:08 36.44352 27.99707 7882 ft 290 kts 75°
2026-04-21 12:08 36.44802 28.02095 7495 ft 279 kts 75°
2026-04-21 12:08 36.45235 28.04399 7131 ft 270 kts 76°
2026-04-21 12:08 36.45662 28.06654 6758 ft 266 kts 75°
2026-04-21 12:09 36.46080 28.08868 6330 ft 261 kts 75°
2026-04-21 12:09 36.46488 28.11037 5889 ft 255 kts 75°
2026-04-21 12:09 36.46886 28.13165 5435 ft 251 kts 75°
2026-04-21 12:09 36.47279 28.15266 4982 ft 247 kts 76°
2026-04-21 12:10 36.47669 28.17357 4526 ft 243 kts 75°
2026-04-21 12:10 36.48046 28.19383 4136 ft 237 kts 76°
2026-04-21 12:10 36.48415 28.21352 3770 ft 231 kts 76°
2026-04-21 12:10 36.48779 28.23272 3389 ft 225 kts 75°
2026-04-21 12:11 36.49131 28.25132 3061 ft 218 kts 76°
2026-04-21 12:11 36.49356 28.26956 2756 ft 210 kts 91°
2026-04-21 12:11 36.48909 28.28629 2462 ft 206 kts 129°
2026-04-21 12:11 36.47767 28.29615 2152 ft 201 kts 169°
2026-04-21 12:12 36.46425 28.29615 1982 ft 189 kts 207°
2026-04-21 12:12 36.45567 28.28486 1981 ft 183 kts 256°
2026-04-21 12:12 36.45604 28.26925 2001 ft 182 kts 279°
2026-04-21 12:12 36.45517 28.25399 2005 ft 180 kts 247°
2026-04-21 12:13 36.44975 28.23988 1982 ft 183 kts 251°
2026-04-21 12:13 36.44576 28.22537 1953 ft 171 kts 252°
2026-04-21 12:13 36.44197 28.21191 1793 ft 158 kts 252°
2026-04-21 12:13 36.43844 28.19964 1621 ft 144 kts 251°
2026-04-21 12:14 36.43519 28.18842 1466 ft 135 kts 251°
2026-04-21 12:14 36.43205 28.17764 1294 ft 130 kts 251°
2026-04-21 12:14 36.42900 28.16715 1114 ft 129 kts 251°
2026-04-21 12:14 36.42594 28.15665 948 ft 129 kts 251°
2026-04-21 12:15 36.42289 28.14621 779 ft 129 kts 251°
2026-04-21 12:15 36.41984 28.13577 616 ft 129 kts 251°
2026-04-21 12:15 36.41679 28.12531 437 ft 129 kts 251°
2026-04-21 12:15 36.41369 28.11470 261 ft 129 kts 251°
2026-04-21 12:16 36.41059 28.10418 88 ft 130 kts 251°
2026-04-21 12:16 36.40776 28.09428 31 ft 102 kts 251°
2026-04-21 12:16 36.40593 28.08799 30 ft 53 kts 249°
2026-04-21 12:16 36.40504 28.08517 26 ft 31 kts 249°
2026-04-21 12:17 36.40427 28.08264 26 ft 32 kts 249°
2026-04-21 12:17 36.40348 28.08029 27 ft 26 kts 237°
2026-04-21 12:17 36.40214 28.07887 26 ft 21 kts 218°
2026-04-21 12:17 36.40142 28.07886 26 ft 12 kts 96°
2026-04-21 12:18 36.40170 28.07998 26 ft 17 kts 70°
2026-04-21 12:18 36.40217 28.08160 27 ft 22 kts 70°
2026-04-21 12:18 36.40272 28.08347 28 ft 24 kts 69°
2026-04-21 12:18 36.40334 28.08555 28 ft 27 kts 70°
2026-04-21 12:19 36.40397 28.08772 29 ft 23 kts 74°
2026-04-21 12:19 36.40396 28.08906 29 ft 15 kts 95°
2026-04-21 12:19 36.40407 28.09035 29 ft 11 kts 71°
2026-04-21 12:19 36.40370 28.09084 29 ft 10 kts 181°
2026-04-21 12:20 36.40351 28.09090 29 ft 0 kts 157°